Regional Weather Roundup
Issued by NWS

Home | Current Version | Previous Version | Text Only | Print | Product List | Glossary Off
Versions: 1 2 3 4 5 6 7 8 9 10 11 12 13 14 15 16 17 18 19 20 21 22 23 24 25 26 27 28 29 30 31 32 33 34 35 36 37 38 39 40 41 42 43 44 45 46 47 48 49 50

000
ASUS45 KSLC 291310
RWRUT

UTAH REGIONAL WEATHER ROUNDUP
NATIONAL WEATHER SERVICE SALT LAKE CITY UT
700 AM MDT WED JUL 29 2015

UTZ001>011-023>025-291400-

NORTHERN UTAH

CITY           SKY/WX    TMP DP  RH WIND       PRES   REMARKS
BRIGHAM CITY   CLEAR     49  36  61 NW5       30.30S
HILL AFB       CLEAR     52  29  40 E21       30.30R
LOGAN          CLEAR     44  36  73 CALM      30.33R
OGDEN          CLEAR     52  30  43 S6        30.29R
PROVO AIRPORT  PTCLDY    52  32  46 CALM      30.31R
SALT LAKE CITY CLEAR     57  42  57 CALM      30.27R
VERNAL         CLEAR     53  30  41 NW5       30.31R
WENDOVER       PTCLDY    57  30  35 CALM      30.28R
HEBER CITY     PTCLDY    37  30  75 CALM      30.39R
WEST JORDAN    CLEAR     55  34  44 CALM      30.29R

$$

UTZ012>022-026-027-291400-

SOUTHERN/CENTRAL UTAH

CITY           SKY/WX    TMP DP  RH WIND       PRES   REMARKS
BLANDING       PTCLDY    61  30  30 CALM      30.32R
BRYCE CANYON   PTCLDY    42  30  62 W9        30.42R
CEDAR CITY     CLEAR     50  29  44 CALM      30.29R
DELTA          CLEAR     51  23  33 CALM      30.28R
HANKSVILLE     CLEAR     55  28  35 CALM      30.22R
MILFORD        CLEAR     51  22  31 N3        30.27R
MOAB/CYNLANDS  CLEAR     58  28  32 W3        30.18R
PRICE          CLEAR     57  19  22 NW5       30.29R
ST GEORGE      MOSUNNY   73  30  20 N3        30.10R
KANAB          PTCLDY    61  34  36 NE6       30.26R

$$

REGIONAL REPORTS     COLORADO/ARIZONA

CITY           SKY/WX    TMP DP  RH WIND       PRES   REMARKS
CRAIG, CO      CLEAR     41  32  70 CALM      30.38R
GRAND JUNCTION CLEAR     58  31  35 SE6       30.23R
RIFLE          CLEAR     53  33  46 CALM      30.32R
MONTROSE       CLEAR     54  37  52 SE8       30.32R
CORTEZ         CLEAR     49  38  65 E6        30.28R
PAGE, AZ       PTCLDY    70  31  23 S5        30.15R
GRAND CANYON   PTCLDY    47  28  47 CALM      30.31S
KINGMAN        PTCLDY    73  44  35 SE7       30.08R
FLAGSTAFF      CLEAR     54  48  80 CALM      30.35R

$$

REGIONAL REPORTS    NEVADA/IDAHO/WYOMING

CITY           SKY/WX    TMP DP  RH WIND       PRES   REMARKS
LAS VEGAS, NV  PTCLDY    81  35  19 W3        29.95R
ELY            PTCLDY    41  21  44 S8        30.36R
ELKO           PTCLDY    44  29  55 CALM      30.30R
POCATELLO, ID  CLEAR     42  38  85 E3        30.34R
BURLEY         CLEAR     42  37  82 CALM      30.29S
EVANSTON, WY   PTCLDY    41  23  48 CALM      30.43R
ROCK SPRINGS   PTCLDY    45  23  42 SW3       30.42R
KEMMERER       MOCLDY    37  30  75 N12       30.45R WCI  30

$$


USA.gov is the U.S. government's official web portal to all federal, state and local government web resources and services.